Regional Weather Roundup
Issued by NWS

Home | Current Version | Previous Version | Text Only | Print | Product List | Glossary On
Versions: 1 2 3 4 5 6 7 8 9 10 11 12 13 14 15 16 17 18 19 20 21 22 23 24 25 26 27 28 29 30 31 32 33 34 35 36 37 38 39 40 41 42 43 44 45 46 47 48 49 50
000
ASUS43 KMPX 101510
RWRMN
WEATHER ROUNDUP FOR MINNESOTA
NATIONAL WEATHER SERVICE TWIN CITIES/CHANHASSEN MN
1000 AM CDT THU JUL 10 2014


NOTE: "FAIR" INDICATES FEW OR NO CLOUDS BELOW 12,000 FEET WITH NO
SIGNIFICANT WEATHER AND/OR OBSTRUCTIONS TO VISIBILITY. N/A MEANS
CURRENT SKY AND/OR WEATHER CONDITIONS ARE NOT AVAILABLE.

MNZ060>063-068>070-101600-
   Twin Cities Metro

CITY           SKY/WX    TMP DP  RH WIND       PRES   REMARKS
TWIN CITIES    MOSUNNY   72  60  66 SE5       30.05F
ST PAUL        SUNNY     71  60  68 SE6       30.06F
CRYSTAL        MOSUNNY   75  58  55 SE5       30.03F
BLAINE         MOSUNNY   73  63  68 SE6       30.05F
LAKEVILLE      SUNNY     72  61  68 SE5       30.06S
EDEN PRAIRIE   SUNNY     73  60  63 SE6       30.04F
SOUTH ST PAUL  MOSUNNY   70  59  66 SE6       30.06F
LAKE ELMO      FAIR      72  61  68 CALM      30.07F
$$
MNZ001>005-007-008-013>017-022>024-027-028-101600-
   Northwest Minnesota

CITY           SKY/WX    TMP DP  RH WIND       PRES   REMARKS
BEMIDJI        SUNNY     70  56  60 SW7       30.02S
HALLOCK        SUNNY     70  55  60 S17       29.92F
ROSEAU         SUNNY     70  59  68 S10       29.97S
WARROAD        SUNNY     70  57  64 SW8       29.98S
THIEF RVR FALL SUNNY     70  55  60 CALM      29.97F
CROOKSTON      SUNNY     72  57  60 S13       29.96F
FOSSTON        SUNNY     70  54  56 S12       30.01S
DETROIT LAKES  SUNNY     72  55  56 S9        30.02F
MOORHEAD       SUNNY     72  57  60 S9        29.98F
PARK RAPIDS    SUNNY     70  54  56 S8        30.03S
$$
MNZ006-009>011-018-025>026-101600-
   North Central Minnesota

CITY           SKY/WX    TMP DP  RH WIND       PRES   REMARKS
BAUDETTE       SUNNY     70  55  59 SW9       30.00S
FLAG ISLAND    SUNNY     68  59  73 S9        29.97R
INTL FALLS     SUNNY     70  53  54 S6        30.01S
WASKISH        SUNNY     70  55  60 S6        30.00F
BIG FORK       SUNNY     72  59  64 S7        30.03
LONGVILLE      SUNNY     70  57  64 S7        30.03S
GRAND RAPIDS   SUNNY     68  57  68 S7        30.04S
CRANE LAKE     SUNNY     66  55  68 S5        30.05S
ORR            SUNNY     70  54  56 S6        30.01S
COOK           SUNNY     70  55  60 S3        30.04S
$$
MNZ012-019>021-037-101600-
   Northeast Minnesota

CITY           SKY/WX    TMP DP  RH WIND       PRES   REMARKS
DULUTH         MOSUNNY   69  56  62 S8        30.06F
ELY            SUNNY     70  55  60 SW7       30.06S
HIBBING        SUNNY     70  56  61 VRB3      30.04F
EVELETH        SUNNY     72  59  64 SE5       30.06S
DULUTH HARBOR  SUNNY     57  54  88 NE6       30.07S
TWO HARBORS    SUNNY     66  54  63 S3        30.05F
SILVER BAY     SUNNY     66  57  72 S6        30.06S
GRAND MARAIS     N/A     53  47  79 CALM      30.09S
G MARAIS ARPRT PTSUNNY   64  52  63 SW7       30.11S
$$
MNZ029>031-032-039>041-046>048-054>057-064-101600-
   West Central Minnesota

CITY           SKY/WX    TMP DP  RH WIND       PRES   REMARKS
FERGUS FALLS   SUNNY     72  52  49 S12       29.99F
WHEATON        SUNNY     70  57  64 SE10      29.99F
MORRIS         SUNNY     72  61  68 SE9       29.99F
ALEXANDRIA     SUNNY     72  54  53 S10       30.04S
WADENA         SUNNY     72  55  56 S8        30.02F
GLENWOOD       SUNNY     72  55  56 SE9       30.04S
APPLETON       SUNNY     73  61  64 SE7       29.99S
BENSON         SUNNY     73  59  60 S8        30.01S
ORTONVILLE     SUNNY     70  57  64 SE6       29.99S
MADISON        SUNNY     73  63  68 S8        29.99S
WILLMAR        FAIR      75  55  50 SE7       30.04S
$$
MNZ033>034-036-042>043-049>051-058-059-101600-
   Central Minnesota

CITY           SKY/WX    TMP DP  RH WIND       PRES   REMARKS
ST CLOUD       MOSUNNY   74  59  59 SE5       30.04S
SAUK CENTRE    FAIR      72  57  59 SE7       30.04S
PAYNESVILLE    SUNNY     69  56  62 E7        30.04S
AITKIN         SUNNY     73  61  64 SW3       30.03S
PINE RIVER     SUNNY     70  55  60 S6        30.07S
BRAINERD       SUNNY     76  53  44 S6        30.05S
STAPLES        SUNNY     70  55  60 S7        30.03F
LONG PRAIRIE   FAIR      72  55  56 SE6       30.04F
LITTLE FALLS   MOSUNNY   72  52  49 SE3       30.04S
LITCHFIELD     MOSUNNY   73  59  60 SE6       30.04S
BUFFALO        SUNNY     73  57  56 SE6       30.05S
MAPLE LAKE     MOSUNNY   74  62  64 CALM      30.05S
$$
MNZ037-044-045-052-053-101600-
   East Central Minnesota

CITY           SKY/WX    TMP DP  RH WIND       PRES   REMARKS
PRINCETON      MOSUNNY   75  59  57 SE3       30.05S
MORA           SUNNY     70  59  68 S3        30.07S
CAMBRIDGE      SUNNY     75  61  60 S5        30.04S
RUSH CITY      SUNNY     71  60  69 SE6       30.06S
MOOSE LAKE     SUNNY     70  59  68 SW6       30.04S
HINCKLEY       FAIR      72  61  68 S5        30.06S
CLOQUET        SUNNY     70  55  60 SE5       30.06S
MCGREGOR       SUNNY     70  57  64 S5        30.05S
$$
MNZ071>073-080-081-089-090-097-098-101600-
   Southwest Minnesota

CITY           SKY/WX    TMP DP  RH WIND       PRES   REMARKS
MONTEVIDEO     SUNNY     75  63  64 S5        30.01F
GRANITE FALLS  SUNNY     73  60  62 SE8       30.03S
CANBY          SUNNY     76  60  57 CALM      30.01S
MARSHALL       SUNNY     77  61  57 S5        30.00F
REDWOOD FALLS  SUNNY     76  60  57 S7        30.02F
OLIVIA         SUNNY     73  63  68 S5        30.02S
PIPESTONE      MOSUNNY   73  61  64 S16       30.03F
WINDOM         SUNNY     75  63  64 S10       30.05S
WORTHINGTON    SUNNY     72  63  73 S14G20    30.07S
JACKSON        SUNNY     73  61  64 S12       30.07S
TRACY          SUNNY     76  62  61 S9        30.03S
SLAYTON        SUNNY     73  60  62 S17       30.05S
$$
MNZ065>067-074>077-082>085-091>093-101600-
   South Central Minnesota

CITY           SKY/WX    TMP DP  RH WIND       PRES   REMARKS
MANKATO        SUNNY     73  61  64 S7        30.06S
NEW ULM        SUNNY     73  64  73 S7        30.04F
ST JAMES       SUNNY     75  61  60 S7        30.05F
FAIRMONT       SUNNY     73  61  64 S12       30.06F
GLENCOE        SUNNY     75  58  55 S5        30.04S
FARIBAULT      MOSUNNY   77  59  53 S8        30.07S
OWATONNA       SUNNY     73  63  68 S6        30.07S
WASECA         SUNNY     72  59  64 S7        30.08F
ALBERT LEA     SUNNY     75  63  64 SW5       30.08S
$$
MNZ078>079-086>088-094>096-101600-
   Southeast Minnesota

CITY           SKY/WX    TMP DP  RH WIND       PRES   REMARKS
ROCHESTER      SUNNY     71  63  75 S9        30.10F
RED WING       SUNNY     72  61  68 SE6       30.06S
STANTON        SUNNY     73  61  64 S7        30.05F
DODGE CENTER   SUNNY     72  63  73 SW8       30.09R
WINONA         SUNNY     73  63  68 S5        30.09F
AUSTIN         SUNNY     72  63  73 SW9       30.09S
PRESTON        SUNNY     71  62  74 S9        30.12S
$$
ABBREVIATIONS USED IN REMARKS
   TC - TEMPERATURES IN CELSIUS
  WCI - WIND CHILL INDEX
   HX - HEAT INDEX
  VSB - VISIBILITY
$$


USA.gov is the U.S. government's official web portal to all federal, state and local government web resources and services.